Pagrindinis puslapis
METAR-TAF:

METAR-TAF

Oro uostai :

Mountain Village, Aliaska, Jungtinės Amerikos Valstijos

platuma: 62-05-43N, ilguma: 163-40-55W, Aukštis: 103 m

Dabartinis oras

Ataskaita buvo paskelbta 1 valandą ir 33 minutes, ne 17:02 UTC
Vėjas 15 kt iš Rytų/Šiaurės Rytų
Temperatūra -3°C
Drėgmė 74%
Slėgis 1025 hPa
Matomumas: 16.1 km
Giedras dangus

METAR: PAMO 221702Z AUTO 07015KT 10SM CLR M03/M07 A3026 RMK AO2 PK WND 06026/1608 SLP253 T10331067 FZRANO

Laikas: 10:35 (18:35 UTC)


TAF: trūkstamas

Orai ataskaitas ir orų prognozės (METAR, TAF).

turimą stotys yra geltonos ir raudonos taškus žemėlapyje.

Perkelti pele per norėdami pamatyti stoties vardą.

Tada spustelėkite, norėdami matyti oro stebėjimo ir prognozės.

Norėdami pakeisti žemėlapį: spustelėkite ant žalios mygtukų su juodo kryžiaus žemyn,; žalią mygtuką su brūkšneliu, jei norite nutolinti; arba žalių rodyklių gretimoms žemėlapius.


METAR-TAF: